Акшам

Kazakhstan     50˚04′58″N   53˚33′00″E
temp.,
°C
wind,
m/s
gust,
m/s
humid.,
%
clouds,
%
prec.,
mm/h
press.,
hPa
HPBL,
m
29 november, sun
sun2923:00−4˚sse599384 0.0 1041187
02:00−5˚sse48917 0.0 1043170
05:00−5˚se598929 0.0 1044187
08:00−6˚se598934 0.0 1044196
11:00−5˚se698658 0.0 1046264
14:00−4˚se588468 0.0 1046286
17:00−5˚ese598662 0.0 1046213
20:00−6˚ese598673 0.0 1046194
30 november, mon
mon3023:00−6˚ese5108664 0.0 1047213
02:00−7˚ese598527 0.0 1047203
05:00−7˚ese598413 0.0 1047203
08:00−8˚ese510830 0.0 1047213
11:00−7˚ese69790 0.0 1048257
14:00−6˚ese69800 0.0 1047294
17:00−7˚e610840 0.0 1046267
20:00−8˚e611860 0.0 1046282
1 december, tue
tue123:00−8˚e612850 0.0 1046280
02:00−9˚e712830 0.0 1045285
05:00−10˚e712830 0.0 1045293
08:00−11˚e611840 0.0 1044277
11:00−11˚e711820 0.0 1044295
14:00−10˚e710800 0.0 1043336
17:00−11˚e611830 0.0 1042327
20:00−12˚e711840 0.0 1042289
2 december, wed
wed223:00−13˚e711850 0.0 1042292
02:00−13˚e610870 0.0 1042278
05:00−14˚e59870 0.0 1041238
08:00−15˚e69850 0.0 1041240
11:00−14˚e58830 0.0 1041259
14:00−13˚ene57820 0.0 1040271
17:00−14˚ene58870 0.0 1039243
20:00−14˚ene58890 0.0 1039219
3 december, thu
thu323:00−15˚ene58880 0.0 1039202
02:00−15˚ene57860 0.0 1040191
05:00−15˚ne47860 0.0 1040173
08:00−15˚ne59860 0.0 1040221
11:00−14˚ene58830 0.0 1040261
14:00−12˚ne57820 0.0 1040276
17:00−13˚ne48860 0.0 1039234
20:00−14˚ne47840 0.0 1039193